Weather History for KELP - April, 2013

Change the Weather History Date:

Thursday, April 25, 2013

  Actual Average Record
Temperature  
Mean Temperature 70 °F 68 °F  
Max Temperature 85 °F 81 °F 95 °F (2012)
Min Temperature 54 °F 54 °F 36 °F (1913)
Degree Days  
Heating Degree Days 0 2  
Month to date heating degree days 60 86  
Since 1 July heating degree days 2198 2459  
Cooling Degree Days 5 4  
Month to date cooling degree days 94 58  
Year to date cooling degree days 127 68  
Growing Degree Days 19 (Base 50)    
Moisture  
Dew Point 26 °F    
Average Humidity 22    
Maximum Humidity 38    
Minimum Humidity 6    
Precipitation  
Precipitation 0.00 in 0.01 in 0.47 in (1941)
Month to date precipitation T 0.19  
Year to date precipitation 0.71 1.31  
Snow  
Snow 0.00 in - - ()
Month to date snowfall 0.0  
Since 1 July snowfall 3.1  
Snow Depth 0.00 in    
Sea Level Pressure  
Sea Level Pressure 29.86 in    
Wind  
Wind Speed 10 mph (SE)    
Max Wind Speed 30 mph    
Max Gust Speed 39 mph    
Visibility 10 miles    
Events      
T = Trace of Precipitation, MM = Missing Value Source: NWS Daily Summary

Daily Weather History Graph

Daily Weather History Graph

Search for Another Location

Airport or City:

Trip Planner

Search our weather history database for the weather conditions in past years. The results will help you decide how hot, cold, wet, or windy it might be!

Date:

Astronomy

Apr. 25, 2013 Rise Set
Actual Time 6:25 AM MDT 7:41 PM MDT
Civil Twilight 5:59 AM MDT 8:07 PM MDT
Nautical Twilight 5:29 AM MDT 8:37 PM MDT
Astronomical Twilight 4:57 AM MDT 9:09 PM MDT
Moon 7:56 PM MDT (4/25) 6:10 AM MDT (4/25)
Length of Visible Light 14h 07m
Length of Day
13h 16m
Full, 100% of the Moon is Illuminated
Apr 25
Full
Apr 25
Full
May 2
Last Quarter
May 9
New
May 17
First Quarter

Hourly Weather History & Observations

Time (MDT) Temp. Dew Point Humidity Pressure Visibility Wind Dir Wind Speed Gust Speed Precip Events Conditions
12:51 AM 61.0 °F 27.0 °F 27% 29.97 in 10.0 mi ENE 5.8 mph - N/A   Scattered Clouds
1:51 AM 57.9 °F 27.0 °F 31% 29.96 in 10.0 mi NE 4.6 mph - N/A   Mostly Cloudy
2:51 AM 57.0 °F 28.9 °F 34% 29.93 in 10.0 mi East 5.8 mph - N/A   Mostly Cloudy
3:51 AM 55.9 °F 28.0 °F 34% 29.94 in 10.0 mi ESE 3.5 mph - N/A   Mostly Cloudy
4:51 AM 55.0 °F 28.0 °F 35% 29.93 in 10.0 mi East 4.6 mph - N/A   Mostly Cloudy
5:51 AM 55.0 °F 27.0 °F 34% 29.95 in 10.0 mi ENE 6.9 mph - N/A   Mostly Cloudy
6:51 AM 54.0 °F 28.0 °F 37% 29.94 in 10.0 mi Calm Calm - N/A   Mostly Cloudy
7:51 AM 57.0 °F 28.9 °F 34% 29.97 in 10.0 mi Calm Calm - N/A   Mostly Cloudy
8:51 AM 60.1 °F 30.0 °F 32% 29.97 in 10.0 mi Variable 6.9 mph 20.7 mph N/A   Overcast
9:51 AM 62.1 °F 33.1 °F 34% 29.98 in 10.0 mi ESE 8.1 mph - N/A   Overcast
10:51 AM 66.0 °F 34.0 °F 30% 29.94 in 10.0 mi ESE 11.5 mph - N/A   Overcast
11:51 AM 71.1 °F 36.0 °F 28% 29.91 in 10.0 mi SE 12.7 mph 16.1 mph N/A   Overcast
12:51 PM 71.1 °F 37.0 °F 29% 29.91 in 10.0 mi East 3.5 mph - N/A   Mostly Cloudy
1:51 PM 75.9 °F 37.9 °F 25% 29.87 in 10.0 mi Variable 4.6 mph - N/A   Mostly Cloudy
2:51 PM 77.0 °F 37.0 °F 24% 29.83 in 10.0 mi ESE 5.8 mph - N/A   Scattered Clouds
3:51 PM 81.0 °F 37.0 °F 21% 29.78 in 10.0 mi Variable 4.6 mph - N/A   Scattered Clouds
4:51 PM 82.9 °F 35.1 °F 18% 29.74 in 10.0 mi SSE 8.1 mph - N/A   Partly Cloudy
5:51 PM 84.9 °F 30.9 °F 14% 29.73 in 10.0 mi SSW 8.1 mph - N/A   Partly Cloudy
6:51 PM 82.9 °F 30.0 °F 15% 29.72 in 10.0 mi Variable 6.9 mph - N/A   Partly Cloudy
7:19 PM 82.4 °F 24.8 °F 12% 29.90 in 3.0 mi WSW 13.8 mph 19.6 mph N/A   Widespread Dust
7:51 PM 82.0 °F 8.1 °F 6% 29.73 in 10.0 mi WSW 19.6 mph 35.7 mph N/A   Partly Cloudy
8:51 PM 81.0 °F 7.0 °F 6% 29.74 in 10.0 mi West 24.2 mph 38.0 mph N/A   Partly Cloudy
9:51 PM 79.0 °F 6.1 °F 6% 29.76 in 10.0 mi West 21.9 mph 31.1 mph N/A   Clear
10:51 PM 75.9 °F 7.0 °F 7% 29.78 in 10.0 mi WSW 20.7 mph - N/A   Clear
11:51 PM 75.9 °F 10.0 °F 8% 29.79 in 10.0 mi West 23.0 mph 32.2 mph N/A   Clear